Location: *
(50.5492°N, 7.7469°E)
Time: 09:34:05
(UTC+00:00)

Cosmos 2082 Rocket - Pass Details

Date: 21 October 2019
Orbit: 832 x 855 km, 71.0° (Epoch: 14 November)

Event Time Altitude Azimuth Distance (km) Brightness Sun altitude
Rises 17:56:03 0° 329° (NNW) 3,435 5.8 -15.0°
Reaches altitude 10° 17:58:31 10° 329° (NNW) 2,494 5.1 -15.4°
Maximum altitude 18:04:15 81° 243° (WSW) 868 2.3 -16.3°
Drops below altitude 10° 18:09:55 10° 157° (SSE) 2,465 4.4 -17.2°
Enters shadow 18:12:01 - 157° (SSE) 3,264 5.0 -17.6°
